Time,TemperatureF,DewpointF,PressureIn,WindDirection,WindDirectionDegrees,WindSpeedMPH,WindSpeedGustMPH,Humidity,HourlyPrecipIn,Conditions,Clouds,dailyrainin,SoftwareType,DateUTC
2013-11-25 00:02:00,32.7,30.2,30.35,East,79,0.0,0.0,90,0.00,,,0.05,meteohub,2013-11-25 06:02:00,
2013-11-25 00:07:00,32.7,30.2,30.35,East,79,0.0,0.0,90,0.00,,,0.05,meteohub,2013-11-25 06:07:00,
2013-11-25 00:12:00,32.7,30.2,30.35,ENE,78,0.0,0.0,90,0.00,,,0.00,meteohub,2013-11-25 06:12:00,
2013-11-25 00:17:00,32.7,30.2,30.34,East,79,0.0,0.0,90,0.00,,,0.00,meteohub,2013-11-25 06:17:00,
2013-11-25 00:22:00,32.7,30.2,30.34,ENE,78,0.0,0.0,90,0.00,,,0.00,meteohub,2013-11-25 06:22:00,
2013-11-25 00:27:00,32.7,30.2,30.35,ENE,78,0.0,0.0,90,0.00,,,0.00,meteohub,2013-11-25 06:27:00,
2013-11-25 00:32:00,32.7,30.2,30.35,ENE,78,0.0,0.0,90,0.00,,,0.00,meteohub,2013-11-25 06:32:00,
2013-11-25 00:37:00,32.7,30.2,30.34,East,79,0.0,0.0,90,0.00,,,0.00,meteohub,2013-11-25 06:37:00,
2013-11-25 00:42:00,32.5,30.0,30.34,East,79,0.0,0.0,90,0.00,,,0.00,meteohub,2013-11-25 06:42:00,
2013-11-25 00:47:00,32.7,30.2,30.34,East,79,0.0,0.0,90,0.00,,,0.00,meteohub,2013-11-25 06:47:00,
2013-11-25 00:52:00,32.7,30.2,30.34,East,79,0.0,3.0,90,0.00,,,0.00,meteohub,2013-11-25 06:52:00,
2013-11-25 00:57:00,32.7,30.2,30.33,East,80,0.0,3.0,90,0.00,,,0.00,meteohub,2013-11-25 06:57:00,
2013-11-25 01:02:00,32.7,30.4,30.34,East,80,0.0,3.0,91,0.00,,,0.00,meteohub,2013-11-25 07:02:00,
2013-11-25 01:07:00,32.7,30.4,30.33,East,80,0.0,3.0,91,0.00,,,0.00,meteohub,2013-11-25 07:07:00,
2013-11-25 01:12:00,32.5,30.2,30.33,East,80,0.0,0.0,91,0.00,,,0.00,meteohub,2013-11-25 07:12:00,
2013-11-25 01:17:00,32.5,30.2,30.33,East,80,0.0,0.0,91,0.00,,,0.00,meteohub,2013-11-25 07:17:00,
2013-11-25 01:22:00,32.5,30.2,30.32,East,80,0.0,0.0,91,0.00,,,0.00,meteohub,2013-11-25 07:22:00,
2013-11-25 01:27:00,32.5,30.2,30.32,East,80,0.0,0.0,91,0.00,,,0.00,meteohub,2013-11-25 07:27:00,
2013-11-25 01:32:00,32.5,30.2,30.31,East,80,0.0,0.0,91,0.00,,,0.00,meteohub,2013-11-25 07:32:00,
2013-11-25 01:37:00,32.5,30.2,30.30,East,80,0.0,0.0,91,0.00,,,0.00,meteohub,2013-11-25 07:37:00,
2013-11-25 01:42:00,32.4,30.4,30.31,East,80,0.0,0.0,92,0.00,,,0.00,meteohub,2013-11-25 07:42:00,
2013-11-25 01:47:00,32.4,30.4,30.31,East,80,0.0,0.0,92,0.00,,,0.00,meteohub,2013-11-25 07:47:00,
2013-11-25 01:52:00,32.4,30.4,30.31,East,80,0.0,0.0,92,0.00,,,0.00,meteohub,2013-11-25 07:52:00,
2013-11-25 01:57:00,32.5,30.6,30.30,East,80,0.0,0.0,92,0.00,,,0.00,meteohub,2013-11-25 07:57:00,
2013-11-25 02:02:00,32.5,30.6,30.30,East,80,0.0,0.0,92,0.00,,,0.00,meteohub,2013-11-25 08:02:00,
2013-11-25 02:07:00,32.5,30.6,30.30,East,80,0.0,0.0,92,0.00,,,0.00,meteohub,2013-11-25 08:07:00,
2013-11-25 02:12:00,32.5,30.6,30.30,East,80,0.0,0.0,92,0.00,,,0.00,meteohub,2013-11-25 08:12:00,
2013-11-25 02:17:00,32.4,30.4,30.30,East,80,0.0,0.0,92,0.00,,,0.00,meteohub,2013-11-25 08:17:00,
2013-11-25 02:22:00,32.4,30.4,30.30,East,80,0.0,0.0,92,0.00,,,0.00,meteohub,2013-11-25 08:22:00,
2013-11-25 02:27:00,32.4,30.4,30.30,East,80,0.0,0.0,92,0.00,,,0.00,meteohub,2013-11-25 08:27:00,
2013-11-25 02:32:00,32.5,30.6,30.29,East,80,0.0,0.0,92,0.00,,,0.00,meteohub,2013-11-25 08:32:00,
2013-11-25 02:37:00,32.5,30.6,30.29,East,80,0.0,0.0,92,0.00,,,0.00,meteohub,2013-11-25 08:37:00,
2013-11-25 02:42:00,32.5,30.6,30.27,East,80,0.0,0.0,92,0.00,,,0.00,meteohub,2013-11-25 08:42:00,
2013-11-25 02:47:00,32.4,30.4,30.27,East,80,0.0,0.0,92,0.00,,,0.00,meteohub,2013-11-25 08:47:00,
2013-11-25 02:52:00,32.4,30.4,30.27,East,80,0.0,0.0,92,0.00,,,0.00,meteohub,2013-11-25 08:52:00,
2013-11-25 02:57:00,32.4,30.4,30.27,East,80,0.0,0.0,92,0.00,,,0.00,meteohub,2013-11-25 08:57:00,
2013-11-25 03:02:00,32.4,30.6,30.28,East,80,0.0,0.0,93,0.00,,,0.00,meteohub,2013-11-25 09:02:00,
2013-11-25 03:07:00,32.4,30.6,30.28,East,80,0.0,0.0,93,0.00,,,0.00,meteohub,2013-11-25 09:07:00,
2013-11-25 03:12:00,32.4,30.4,30.28,East,80,0.0,0.0,92,0.00,,,0.00,meteohub,2013-11-25 09:12:00,
2013-11-25 03:17:00,32.5,30.6,30.28,East,80,0.0,0.0,92,0.00,,,0.00,meteohub,2013-11-25 09:17:00,
2013-11-25 03:22:00,32.5,30.7,30.28,East,80,0.0,0.0,93,0.00,,,0.00,meteohub,2013-11-25 09:22:00,
2013-11-25 03:27:00,32.5,30.7,30.28,East,80,0.0,0.0,93,0.00,,,0.00,meteohub,2013-11-25 09:27:00,
2013-11-25 03:32:00,32.7,30.9,30.28,East,80,0.0,0.0,93,0.00,,,0.00,meteohub,2013-11-25 09:32:00,
2013-11-25 03:37:00,32.7,30.9,30.28,East,80,0.0,0.0,93,0.00,,,0.00,meteohub,2013-11-25 09:37:00,
2013-11-25 03:42:00,32.7,30.9,30.28,East,80,0.0,0.0,93,0.00,,,0.00,meteohub,2013-11-25 09:42:00,
2013-11-25 03:47:00,32.7,30.9,30.27,East,80,0.0,0.0,93,0.00,,,0.00,meteohub,2013-11-25 09:47:00,
2013-11-25 03:52:00,32.7,30.9,30.27,East,80,0.0,0.0,93,0.00,,,0.00,meteohub,2013-11-25 09:52:00,
2013-11-25 03:57:00,32.7,30.9,30.27,East,80,0.0,0.0,93,0.00,,,0.00,meteohub,2013-11-25 09:57:00,
2013-11-25 04:02:00,32.7,30.9,30.27,East,80,0.0,0.0,93,0.00,,,0.00,meteohub,2013-11-25 10:02:00,
2013-11-25 04:07:00,32.7,30.7,30.27,East,80,0.0,0.0,92,0.00,,,0.00,meteohub,2013-11-25 10:07:00,
2013-11-25 04:12:00,32.7,30.7,30.27,East,80,0.0,0.0,92,0.00,,,0.00,meteohub,2013-11-25 10:12:00,
2013-11-25 04:17:00,32.7,30.9,30.27,East,80,0.0,0.0,93,0.00,,,0.00,meteohub,2013-11-25 10:17:00,
2013-11-25 04:22:00,32.9,31.1,30.27,East,80,0.0,0.0,93,0.00,,,0.00,meteohub,2013-11-25 10:22:00,
2013-11-25 04:27:00,32.9,31.1,30.27,East,80,0.0,0.0,93,0.00,,,0.00,meteohub,2013-11-25 10:27:00,
2013-11-25 04:33:00,32.9,30.9,30.27,East,80,0.0,0.0,92,0.00,,,0.00,meteohub,2013-11-25 10:33:00,
2013-11-25 04:38:00,33.1,31.3,30.27,East,80,0.0,0.0,93,0.00,,,0.00,meteohub,2013-11-25 10:38:00,
2013-11-25 04:43:00,33.1,31.3,30.27,East,80,0.0,0.0,93,0.00,,,0.00,meteohub,2013-11-25 10:43:00,
2013-11-25 04:48:00,33.1,31.3,30.26,East,80,0.0,0.0,93,0.00,,,0.00,meteohub,2013-11-25 10:48:00,
2013-11-25 04:53:00,33.1,31.3,30.26,East,80,0.0,0.0,93,0.00,,,0.00,meteohub,2013-11-25 10:53:00,
2013-11-25 04:58:00,33.1,31.1,30.26,East,80,0.0,0.0,92,0.00,,,0.00,meteohub,2013-11-25 10:58:00,
2013-11-25 05:03:00,33.1,31.1,30.26,East,80,0.0,0.0,92,0.00,,,0.00,meteohub,2013-11-25 11:03:00,
2013-11-25 05:08:00,33.1,31.1,30.26,East,80,0.0,0.0,92,0.00,,,0.00,meteohub,2013-11-25 11:08:00,
2013-11-25 05:13:00,33.1,31.1,30.25,East,80,0.0,0.0,92,0.00,,,0.00,meteohub,2013-11-25 11:13:00,
2013-11-25 05:18:00,33.1,31.1,30.25,East,80,0.0,0.0,92,0.00,,,0.00,meteohub,2013-11-25 11:18:00,
2013-11-25 05:23:00,33.1,31.1,30.25,East,80,0.0,0.0,92,0.00,,,0.00,meteohub,2013-11-25 11:23:00,
2013-11-25 05:28:00,33.1,31.1,30.25,East,80,0.0,0.0,92,0.00,,,0.00,meteohub,2013-11-25 11:28:00,
2013-11-25 05:33:00,33.1,31.1,30.25,East,80,0.0,0.0,92,0.00,,,0.00,meteohub,2013-11-25 11:33:00,
2013-11-25 05:38:00,33.1,31.1,30.25,East,80,0.0,0.0,92,0.00,,,0.00,meteohub,2013-11-25 11:38:00,
2013-11-25 05:43:00,33.1,31.1,30.25,East,80,0.0,0.0,92,0.00,,,0.00,meteohub,2013-11-25 11:43:00,
2013-11-25 05:48:00,33.3,31.1,30.25,East,80,0.0,0.0,92,0.00,,,0.00,meteohub,2013-11-25 11:48:00,
2013-11-25 05:53:00,33.3,31.1,30.25,East,80,0.0,0.0,92,0.00,,,0.00,meteohub,2013-11-25 11:53:00,
2013-11-25 05:58:00,33.3,31.1,30.25,East,80,0.0,0.0,92,0.00,,,0.00,meteohub,2013-11-25 11:58:00,
2013-11-25 06:03:00,33.3,31.1,30.25,East,80,0.0,0.0,92,0.00,,,0.00,meteohub,2013-11-25 12:03:00,
2013-11-25 06:08:00,33.3,31.1,30.25,East,80,0.0,0.0,92,0.00,,,0.00,meteohub,2013-11-25 12:08:00,
2013-11-25 06:13:00,33.3,31.1,30.25,East,80,0.0,0.0,92,0.00,,,0.00,meteohub,2013-11-25 12:13:00,
2013-11-25 06:18:00,33.3,31.1,30.25,East,80,0.0,0.0,92,0.00,,,0.00,meteohub,2013-11-25 12:18:00,
2013-11-25 06:23:00,33.3,31.1,30.24,East,80,0.0,0.0,92,0.00,,,0.00,meteohub,2013-11-25 12:23:00,
2013-11-25 06:28:00,33.3,31.1,30.24,East,80,0.0,0.0,92,0.00,,,0.00,meteohub,2013-11-25 12:28:00,
2013-11-25 06:33:00,33.3,31.1,30.24,East,80,0.0,0.0,92,0.00,,,0.00,meteohub,2013-11-25 12:33:00,
2013-11-25 06:38:00,33.3,31.1,30.24,East,80,0.0,0.0,92,0.00,,,0.00,meteohub,2013-11-25 12:38:00,
2013-11-25 06:43:00,33.3,31.1,30.24,East,80,0.0,0.0,92,0.00,,,0.00,meteohub,2013-11-25 12:43:00,
2013-11-25 06:48:00,33.3,31.1,30.24,East,80,0.0,0.0,92,0.00,,,0.00,meteohub,2013-11-25 12:48:00,
2013-11-25 06:53:00,33.4,31.3,30.24,East,80,0.0,0.0,92,0.00,,,0.00,meteohub,2013-11-25 12:53:00,
2013-11-25 06:58:00,33.3,31.1,30.24,East,80,0.0,0.0,92,0.00,,,0.00,meteohub,2013-11-25 12:58:00,
2013-11-25 07:03:00,33.3,31.1,30.24,East,80,0.0,0.0,92,0.00,,,0.00,meteohub,2013-11-25 13:03:00,
2013-11-25 07:08:00,33.3,31.1,30.23,East,80,0.0,0.0,92,0.00,,,0.00,meteohub,2013-11-25 13:08:00,
2013-11-25 07:13:00,33.3,31.1,30.24,East,80,0.0,0.0,92,0.00,,,0.00,meteohub,2013-11-25 13:13:00,
2013-11-25 07:18:00,33.3,31.1,30.24,East,80,0.0,0.0,92,0.00,,,0.00,meteohub,2013-11-25 13:18:00,
2013-11-25 07:23:00,33.1,31.1,30.23,East,80,0.0,0.0,92,0.00,,,0.00,meteohub,2013-11-25 13:23:00,
2013-11-25 07:29:00,33.1,31.1,30.24,East,80,0.0,0.0,92,0.00,,,0.00,meteohub,2013-11-25 13:29:00,
2013-11-25 07:34:00,33.3,31.1,30.23,East,80,0.0,0.0,92,0.00,,,0.00,meteohub,2013-11-25 13:34:00,
2013-11-25 07:39:00,33.3,31.1,30.23,East,80,0.0,0.0,92,0.00,,,0.00,meteohub,2013-11-25 13:39:00,
2013-11-25 07:44:00,33.3,31.1,30.23,East,80,0.0,0.0,92,0.00,,,0.00,meteohub,2013-11-25 13:44:00,
2013-11-25 07:49:00,33.3,31.1,30.25,East,80,0.0,0.0,92,0.00,,,0.00,meteohub,2013-11-25 13:49:00,
2013-11-25 07:54:00,33.3,31.1,30.25,East,80,0.0,0.0,92,0.00,,,0.00,meteohub,2013-11-25 13:54:00,
2013-11-25 07:59:00,33.3,31.1,30.25,East,80,0.0,0.0,92,0.00,,,0.00,meteohub,2013-11-25 13:59:00,
2013-11-25 08:04:00,33.4,31.3,30.25,East,80,0.0,0.0,92,0.00,,,0.00,meteohub,2013-11-25 14:04:00,
2013-11-25 08:09:00,33.4,31.3,30.25,East,80,0.0,0.0,92,0.00,,,0.00,meteohub,2013-11-25 14:09:00,
2013-11-25 08:14:00,33.6,31.5,30.25,East,80,0.0,0.0,92,0.00,,,0.00,meteohub,2013-11-25 14:14:00,
2013-11-25 08:19:00,33.6,31.5,30.24,East,80,0.0,0.0,92,0.00,,,0.00,meteohub,2013-11-25 14:19:00,
2013-11-25 08:24:00,34.0,32.2,30.25,East,80,0.0,0.0,93,0.01,,,0.00,meteohub,2013-11-25 14:24:00,
2013-11-25 08:29:00,34.3,32.5,30.25,East,80,0.0,0.0,93,0.01,,,0.00,meteohub,2013-11-25 14:29:00,
2013-11-25 08:34:00,34.3,32.2,30.25,East,80,0.0,0.0,92,0.01,,,0.00,meteohub,2013-11-25 14:34:00,
2013-11-25 08:39:00,34.3,32.0,30.25,East,80,0.0,0.0,91,0.01,,,0.01,meteohub,2013-11-25 14:39:00,
2013-11-25 08:44:00,34.5,32.2,30.25,East,80,0.0,0.0,91,0.01,,,0.01,meteohub,2013-11-25 14:44:00,
2013-11-25 08:49:00,34.7,32.4,30.25,East,80,0.0,0.0,91,0.01,,,0.01,meteohub,2013-11-25 14:49:00,
2013-11-25 08:54:00,34.7,32.0,30.25,East,80,0.0,0.0,90,0.01,,,0.01,meteohub,2013-11-25 14:54:00,
2013-11-25 08:59:00,34.7,31.8,30.25,East,80,0.0,0.0,89,0.01,,,0.01,meteohub,2013-11-25 14:59:00,
2013-11-25 09:04:00,34.9,32.2,30.25,East,80,0.0,0.0,90,0.02,,,0.01,meteohub,2013-11-25 15:04:00,
2013-11-25 09:09:00,34.9,32.2,30.25,East,80,0.0,0.0,90,0.02,,,0.01,meteohub,2013-11-25 15:09:00,
2013-11-25 09:14:00,35.1,32.4,30.25,East,80,0.0,0.0,90,0.02,,,0.01,meteohub,2013-11-25 15:14:00,
2013-11-25 09:19:00,35.2,32.5,30.26,East,80,0.0,0.0,90,0.02,,,0.02,meteohub,2013-11-25 15:19:00,
2013-11-25 09:24:00,35.2,32.4,30.25,East,80,0.0,0.0,89,0.01,,,0.02,meteohub,2013-11-25 15:24:00,
2013-11-25 09:29:00,35.2,32.0,30.25,East,80,0.0,0.0,88,0.01,,,0.02,meteohub,2013-11-25 15:29:00,
2013-11-25 09:34:00,35.4,32.7,30.26,East,80,0.0,0.0,90,0.01,,,0.02,meteohub,2013-11-25 15:34:00,
2013-11-25 09:39:00,35.4,32.5,30.26,East,80,0.0,0.0,89,0.01,,,0.02,meteohub,2013-11-25 15:39:00,
2013-11-25 09:44:00,35.6,32.7,30.26,East,80,0.0,0.0,89,0.02,,,0.02,meteohub,2013-11-25 15:44:00,
2013-11-25 09:49:00,35.8,32.9,30.26,East,80,0.0,0.0,89,0.02,,,0.02,meteohub,2013-11-25 15:49:00,
2013-11-25 09:54:00,36.0,33.1,30.26,East,80,0.0,0.0,89,0.02,,,0.02,meteohub,2013-11-25 15:54:00,
2013-11-25 09:59:00,36.0,33.1,30.26,East,80,0.0,0.0,89,0.02,,,0.03,meteohub,2013-11-25 15:59:00,
2013-11-25 10:04:00,36.1,33.3,30.25,East,81,0.0,0.0,89,0.01,,,0.03,meteohub,2013-11-25 16:04:00,
2013-11-25 10:09:00,36.3,33.1,30.25,East,81,0.0,3.0,88,0.01,,,0.03,meteohub,2013-11-25 16:09:00,
2013-11-25 10:14:00,36.5,33.6,30.25,East,81,0.0,3.0,89,0.01,,,0.03,meteohub,2013-11-25 16:14:00,
2013-11-25 10:19:00,36.7,33.4,30.25,ENE,71,0.0,3.0,88,0.01,,,0.03,meteohub,2013-11-25 16:19:00,
2013-11-25 10:24:00,36.7,33.4,30.25,North,0,0.0,0.0,88,0.01,,,0.03,meteohub,2013-11-25 16:24:00,
2013-11-25 10:29:00,36.7,33.4,30.25,West,274,0.0,0.0,88,0.01,,,0.03,meteohub,2013-11-25 16:29:00,
2013-11-25 10:34:00,36.7,33.3,30.25,West,272,0.0,0.0,87,0.01,,,0.03,meteohub,2013-11-25 16:34:00,
2013-11-25 10:39:00,36.9,33.6,30.25,West,269,0.0,0.0,88,0.01,,,0.04,meteohub,2013-11-25 16:39:00,
2013-11-25 10:44:00,37.0,33.6,30.25,West,276,0.0,0.0,87,0.01,,,0.04,meteohub,2013-11-25 16:44:00,
2013-11-25 10:49:00,37.0,33.3,30.25,West,278,0.0,6.0,86,0.01,,,0.04,meteohub,2013-11-25 16:49:00,
2013-11-25 10:54:00,37.2,33.8,30.25,West,277,5.0,6.0,87,0.01,,,0.04,meteohub,2013-11-25 16:54:00,
2013-11-25 10:59:00,37.2,33.1,30.24,West,272,0.0,6.0,85,0.01,,,0.05,meteohub,2013-11-25 16:59:00,
2013-11-25 11:04:00,37.2,33.4,30.24,West,273,0.0,6.0,86,0.02,,,0.05,meteohub,2013-11-25 17:04:00,
2013-11-25 11:09:00,37.2,33.4,30.24,West,259,7.0,7.0,86,0.02,,,0.05,meteohub,2013-11-25 17:09:00,
2013-11-25 11:14:00,37.4,33.3,30.24,West,269,0.0,7.0,85,0.02,,,0.05,meteohub,2013-11-25 17:14:00,
2013-11-25 11:19:00,37.6,33.4,30.24,West,269,0.0,7.0,85,0.02,,,0.05,meteohub,2013-11-25 17:19:00,
2013-11-25 11:24:00,37.6,33.4,30.24,West,267,4.0,7.0,85,0.03,,,0.05,meteohub,2013-11-25 17:24:00,
2013-11-25 11:29:00,37.8,33.6,30.24,West,261,0.0,7.0,85,0.03,,,0.05,meteohub,2013-11-25 17:29:00,
2013-11-25 11:34:00,37.8,33.6,30.24,West,263,0.0,7.0,85,0.03,,,0.05,meteohub,2013-11-25 17:34:00,
2013-11-25 11:39:00,37.8,33.6,30.23,West,265,0.0,7.0,85,0.03,,,0.06,meteohub,2013-11-25 17:39:00,
2013-11-25 11:44:00,37.8,33.4,30.23,West,268,3.0,7.0,84,0.02,,,0.06,meteohub,2013-11-25 17:44:00,
2013-11-25 11:50:00,37.6,33.3,30.23,West,261,0.0,8.0,84,0.02,,,0.06,meteohub,2013-11-25 17:50:00,
2013-11-25 11:55:00,37.6,33.3,30.23,West,263,0.0,8.0,84,0.02,,,0.06,meteohub,2013-11-25 17:55:00,
2013-11-25 12:00:00,37.6,33.3,30.22,WNW,286,0.0,8.0,84,0.02,,,0.07,meteohub,2013-11-25 18:00:00,
2013-11-25 12:05:00,37.4,33.1,30.22,WNW,287,0.0,8.0,84,0.02,,,0.07,meteohub,2013-11-25 18:05:00,
2013-11-25 12:10:00,37.4,33.1,30.22,WNW,294,0.0,7.0,84,0.02,,,0.07,meteohub,2013-11-25 18:10:00,
2013-11-25 12:15:00,37.6,33.4,30.22,WNW,292,0.0,7.0,85,0.02,,,0.07,meteohub,2013-11-25 18:15:00,
2013-11-25 12:20:00,37.6,33.4,30.21,West,269,0.0,7.0,85,0.02,,,0.07,meteohub,2013-11-25 18:20:00,
2013-11-25 12:25:00,37.8,33.6,30.20,West,270,0.0,7.0,85,0.02,,,0.07,meteohub,2013-11-25 18:25:00,
2013-11-25 12:30:00,37.8,33.6,30.21,West,269,0.0,7.0,85,0.02,,,0.07,meteohub,2013-11-25 18:30:00,
2013-11-25 12:35:00,37.8,33.4,30.21,WSW,256,4.0,7.0,84,0.01,,,0.07,meteohub,2013-11-25 18:35:00,
2013-11-25 12:40:00,37.8,33.4,30.20,WSW,254,0.0,7.0,84,0.01,,,0.07,meteohub,2013-11-25 18:40:00,
2013-11-25 12:45:00,37.8,33.6,30.20,WSW,254,0.0,7.0,85,0.01,,,0.07,meteohub,2013-11-25 18:45:00,
2013-11-25 12:50:00,37.9,33.6,30.19,WSW,257,0.0,7.0,84,0.01,,,0.07,meteohub,2013-11-25 18:50:00,
2013-11-25 12:55:00,38.1,33.4,30.19,WSW,257,0.0,7.0,83,0.01,,,0.07,meteohub,2013-11-25 18:55:00,
2013-11-25 13:00:00,38.1,33.4,30.19,West,259,0.0,6.0,83,0.01,,,0.07,meteohub,2013-11-25 19:00:00,
2013-11-25 13:05:00,38.5,34.2,30.18,WSW,258,0.0,6.0,84,0.01,,,0.07,meteohub,2013-11-25 19:05:00,
2013-11-25 13:10:00,38.5,33.8,30.18,West,259,0.0,6.0,83,0.01,,,0.07,meteohub,2013-11-25 19:10:00,
2013-11-25 13:15:00,38.5,33.4,30.18,WSW,253,7.0,7.0,82,0.01,,,0.08,meteohub,2013-11-25 19:15:00,
2013-11-25 13:20:00,38.5,33.4,30.18,WSW,254,0.0,10.0,82,0.01,,,0.08,meteohub,2013-11-25 19:20:00,
2013-11-25 13:25:00,38.7,33.6,30.18,West,276,0.0,10.0,82,0.01,,,0.08,meteohub,2013-11-25 19:25:00,
2013-11-25 13:30:00,38.7,33.6,30.17,West,276,0.0,10.0,82,0.01,,,0.08,meteohub,2013-11-25 19:30:00,
2013-11-25 13:35:00,38.7,33.6,30.17,West,276,0.0,10.0,82,0.01,,,0.09,meteohub,2013-11-25 19:35:00,
2013-11-25 13:40:00,38.8,33.4,30.17,West,277,0.0,10.0,81,0.02,,,0.09,meteohub,2013-11-25 19:40:00,
2013-11-25 13:45:00,38.8,33.8,30.16,West,278,0.0,6.0,82,0.02,,,0.09,meteohub,2013-11-25 19:45:00,
2013-11-25 13:50:00,38.8,33.8,30.16,WNW,282,0.0,6.0,82,0.02,,,0.09,meteohub,2013-11-25 19:50:00,
2013-11-25 13:55:00,39.0,34.0,30.16,West,281,0.0,6.0,82,0.02,,,0.09,meteohub,2013-11-25 19:55:00,
2013-11-25 14:00:00,39.0,34.0,30.16,WNW,282,0.0,0.0,82,0.01,,,0.09,meteohub,2013-11-25 20:00:00,
2013-11-25 14:05:00,39.0,33.6,30.16,West,281,0.0,0.0,81,0.01,,,0.09,meteohub,2013-11-25 20:05:00,
2013-11-25 14:10:00,38.8,33.4,30.16,WNW,302,0.0,0.0,81,0.01,,,0.09,meteohub,2013-11-25 20:10:00,
2013-11-25 14:15:00,38.8,33.8,30.16,WNW,301,0.0,0.0,82,0.01,,,0.09,meteohub,2013-11-25 20:15:00,
2013-11-25 14:20:00,38.8,33.8,30.16,WNW,302,0.0,0.0,82,0.01,,,0.09,meteohub,2013-11-25 20:20:00,
2013-11-25 14:25:00,38.7,33.6,30.17,WNW,303,0.0,6.0,82,0.01,,,0.09,meteohub,2013-11-25 20:25:00,
2013-11-25 14:30:00,38.7,33.6,30.17,NW,305,0.0,6.0,82,0.01,,,0.09,meteohub,2013-11-25 20:30:00,
2013-11-25 14:35:00,38.7,34.0,30.17,NW,309,6.0,6.0,83,0.01,,,0.09,meteohub,2013-11-25 20:35:00,
2013-11-25 14:40:00,38.7,33.6,30.17,WSW,246,5.0,6.0,82,0.01,,,0.09,meteohub,2013-11-25 20:40:00,
2013-11-25 14:45:00,38.7,33.6,30.17,West,271,0.0,6.0,82,0.00,,,0.09,meteohub,2013-11-25 20:45:00,
2013-11-25 14:50:00,38.7,34.0,30.17,West,263,0.0,9.0,83,0.00,,,0.09,meteohub,2013-11-25 20:50:00,
2013-11-25 14:55:00,38.7,34.0,30.17,WNW,295,0.0,9.0,83,0.00,,,0.09,meteohub,2013-11-25 20:55:00,
2013-11-25 15:01:00,38.7,34.0,30.17,WNW,297,0.0,9.0,83,0.00,,,0.10,meteohub,2013-11-25 21:01:00,
2013-11-25 15:06:00,38.7,34.0,30.17,NW,306,0.0,9.0,83,0.01,,,0.10,meteohub,2013-11-25 21:06:00,
2013-11-25 15:11:00,38.7,34.0,30.17,NW,310,4.0,9.0,83,0.01,,,0.10,meteohub,2013-11-25 21:11:00,
2013-11-25 15:16:00,38.7,33.6,30.17,NW,306,0.0,9.0,82,0.01,,,0.10,meteohub,2013-11-25 21:16:00,
2013-11-25 15:21:00,38.7,33.6,30.17,NW,304,4.0,9.0,82,0.01,,,0.10,meteohub,2013-11-25 21:21:00,
2013-11-25 15:26:00,38.7,33.6,30.18,WNW,297,0.0,9.0,82,0.01,,,0.10,meteohub,2013-11-25 21:26:00,
2013-11-25 15:31:00,38.7,34.0,30.18,NW,309,1.0,9.0,83,0.01,,,0.10,meteohub,2013-11-25 21:31:00,
2013-11-25 15:36:00,38.7,34.0,30.18,NW,308,0.0,9.0,83,0.01,,,0.10,meteohub,2013-11-25 21:36:00,
2013-11-25 15:41:00,38.7,34.0,30.17,WNW,286,0.0,9.0,83,0.01,,,0.10,meteohub,2013-11-25 21:41:00,
2013-11-25 15:46:00,38.7,34.0,30.17,NNW,333,7.0,9.0,83,0.01,,,0.10,meteohub,2013-11-25 21:46:00,
2013-11-25 15:51:00,38.5,33.4,30.17,NNW,335,0.0,7.0,82,0.01,,,0.10,meteohub,2013-11-25 21:51:00,
2013-11-25 15:56:00,38.5,33.8,30.17,NNW,335,0.0,7.0,83,0.01,,,0.10,meteohub,2013-11-25 21:56:00,
2013-11-25 16:01:00,38.3,33.6,30.17,NNW,337,0.0,10.0,83,0.00,,,0.10,meteohub,2013-11-25 22:01:00,
2013-11-25 16:06:00,38.3,33.6,30.18,NW,315,5.0,10.0,83,0.00,,,0.10,meteohub,2013-11-25 22:06:00,
2013-11-25 16:11:00,38.1,33.8,30.18,NW,315,0.0,10.0,84,0.00,,,0.10,meteohub,2013-11-25 22:11:00,
2013-11-25 16:16:00,38.3,34.0,30.18,NNW,338,4.0,10.0,84,0.00,,,0.10,meteohub,2013-11-25 22:16:00,
2013-11-25 16:21:00,38.3,34.0,30.18,NW,311,7.0,10.0,84,0.00,,,0.10,meteohub,2013-11-25 22:21:00,
2013-11-25 16:26:00,38.3,33.6,30.18,NW,325,5.0,10.0,83,0.00,,,0.10,meteohub,2013-11-25 22:26:00,
2013-11-25 16:31:00,38.1,33.1,30.18,NW,325,6.0,9.0,82,0.00,,,0.10,meteohub,2013-11-25 22:31:00,
2013-11-25 16:36:00,38.1,33.4,30.18,NW,319,4.0,9.0,83,0.00,,,0.10,meteohub,2013-11-25 22:36:00,
2013-11-25 16:41:00,38.1,33.1,30.18,NNW,344,6.0,9.0,82,0.00,,,0.10,meteohub,2013-11-25 22:41:00,
2013-11-25 16:46:00,37.9,33.3,30.18,NW,305,1.0,9.0,83,0.00,,,0.10,meteohub,2013-11-25 22:46:00,
2013-11-25 16:51:00,37.9,33.3,30.19,NW,320,2.0,10.0,83,0.01,,,0.11,meteohub,2013-11-25 22:51:00,
2013-11-25 16:56:00,37.9,33.3,30.19,WNW,290,4.0,10.0,83,0.01,,,0.11,meteohub,2013-11-25 22:56:00,
2013-11-25 17:01:00,37.9,33.3,30.19,WNW,296,0.0,9.0,83,0.01,,,0.11,meteohub,2013-11-25 23:01:00,
2013-11-25 17:07:00,37.9,33.6,30.19,NW,306,0.0,9.0,84,0.01,,,0.11,meteohub,2013-11-25 23:07:00,
2013-11-25 17:12:00,37.9,33.6,30.19,NNW,346,0.0,8.0,84,0.01,,,0.11,meteohub,2013-11-25 23:12:00,
2013-11-25 17:17:00,37.9,33.6,30.19,NNW,342,4.0,8.0,84,0.01,,,0.11,meteohub,2013-11-25 23:17:00,
2013-11-25 17:22:00,37.8,33.1,30.19,NW,312,9.0,9.0,83,0.01,,,0.11,meteohub,2013-11-25 23:22:00,
2013-11-25 17:27:00,37.8,33.1,30.19,NW,309,0.0,8.0,83,0.01,,,0.11,meteohub,2013-11-25 23:27:00,
2013-11-25 17:32:00,37.6,32.9,30.19,NNW,342,4.0,12.0,83,0.01,,,0.11,meteohub,2013-11-25 23:32:00,
2013-11-25 17:37:00,37.6,32.9,30.20,NNW,346,0.0,12.0,83,0.01,,,0.11,meteohub,2013-11-25 23:37:00,
2013-11-25 17:42:00,37.4,32.4,30.20,NW,315,4.0,11.0,82,0.01,,,0.11,meteohub,2013-11-25 23:42:00,
2013-11-25 17:47:00,37.4,32.4,30.21,NNW,331,7.0,11.0,82,0.01,,,0.11,meteohub,2013-11-25 23:47:00,
2013-11-25 17:52:00,37.2,32.2,30.21,NNW,331,6.0,10.0,82,0.00,,,0.11,meteohub,2013-11-25 23:52:00,
2013-11-25 17:57:00,37.2,32.2,30.21,NNW,336,7.0,10.0,82,0.00,,,0.11,meteohub,2013-11-25 23:57:00,
2013-11-25 18:02:00,37.2,32.2,30.21,NNW,333,0.0,12.0,82,0.00,,,0.11,meteohub,2013-11-26 00:02:00,
2013-11-25 18:07:00,37.2,32.2,30.21,NW,324,8.0,12.0,82,0.00,,,0.11,meteohub,2013-11-26 00:07:00,
2013-11-25 18:12:00,37.2,32.5,30.21,NNW,333,6.0,12.0,83,0.00,,,0.11,meteohub,2013-11-26 00:12:00,
2013-11-25 18:17:00,37.4,32.4,30.22,NW,326,4.0,12.0,82,0.00,,,0.11,meteohub,2013-11-26 00:17:00,
2013-11-25 18:22:00,37.2,32.2,30.22,NNW,348,1.0,12.0,82,0.00,,,0.11,meteohub,2013-11-26 00:22:00,
2013-11-25 18:27:00,37.2,32.5,30.21,NNW,346,0.0,12.0,83,0.00,,,0.11,meteohub,2013-11-26 00:27:00,
2013-11-25 18:32:00,37.2,32.5,30.22,NNW,340,0.0,10.0,83,0.00,,,0.11,meteohub,2013-11-26 00:32:00,
2013-11-25 18:37:00,37.2,32.5,30.22,NNW,343,6.0,10.0,83,0.00,,,0.11,meteohub,2013-11-26 00:37:00,
2013-11-25 18:42:00,37.2,32.5,30.22,NNW,334,0.0,10.0,83,0.00,,,0.11,meteohub,2013-11-26 00:42:00,
2013-11-25 18:47:00,37.4,32.7,30.22,NNW,340,0.0,10.0,83,0.00,,,0.11,meteohub,2013-11-26 00:47:00,
2013-11-25 18:52:00,37.4,32.7,30.22,NNW,336,0.0,10.0,83,0.00,,,0.11,meteohub,2013-11-26 00:52:00,
2013-11-25 18:57:00,37.4,32.7,30.23,NNW,327,0.0,10.0,83,0.00,,,0.11,meteohub,2013-11-26 00:57:00,
2013-11-25 19:02:00,37.2,32.5,30.23,NW,321,4.0,10.0,83,0.00,,,0.11,meteohub,2013-11-26 01:02:00,
2013-11-25 19:07:00,37.2,32.5,30.23,NNW,329,5.0,10.0,83,0.00,,,0.11,meteohub,2013-11-26 01:07:00,
2013-11-25 19:12:00,37.2,32.5,30.23,NNW,337,4.0,8.0,83,0.00,,,0.11,meteohub,2013-11-26 01:12:00,
2013-11-25 19:17:00,37.2,32.5,30.23,NNE,13,4.0,8.0,83,0.00,,,0.11,meteohub,2013-11-26 01:17:00,
2013-11-25 19:22:00,37.2,32.5,30.23,NW,309,2.0,9.0,83,0.00,,,0.11,meteohub,2013-11-26 01:22:00,
2013-11-25 19:27:00,37.2,32.5,30.23,NW,326,4.0,9.0,83,0.00,,,0.11,meteohub,2013-11-26 01:27:00,
2013-11-25 19:32:00,37.0,32.4,30.23,North,0,1.0,9.0,83,0.00,,,0.11,meteohub,2013-11-26 01:32:00,
2013-11-25 19:37:00,37.0,32.7,30.23,NNE,16,8.0,9.0,84,0.00,,,0.11,meteohub,2013-11-26 01:37:00,
2013-11-25 19:42:00,37.2,32.5,30.23,North,9,0.0,9.0,83,0.00,,,0.11,meteohub,2013-11-26 01:42:00,
2013-11-25 19:47:00,37.2,32.5,30.23,NW,309,0.0,9.0,83,0.00,,,0.11,meteohub,2013-11-26 01:47:00,
2013-11-25 19:52:00,37.2,32.5,30.24,NW,313,0.0,9.0,83,0.00,,,0.11,meteohub,2013-11-26 01:52:00,
2013-11-25 19:57:00,37.2,32.5,30.23,NNW,333,0.0,9.0,83,0.00,,,0.11,meteohub,2013-11-26 01:57:00,
2013-11-25 20:02:00,37.2,32.5,30.23,NNW,333,0.0,9.0,83,0.00,,,0.11,meteohub,2013-11-26 02:02:00,
2013-11-25 20:07:00,37.2,32.9,30.24,NW,312,0.0,9.0,84,0.00,,,0.11,meteohub,2013-11-26 02:07:00,
2013-11-25 20:12:00,37.2,32.9,30.24,NW,313,0.0,6.0,84,0.00,,,0.11,meteohub,2013-11-26 02:12:00,
2013-11-25 20:17:00,37.4,32.7,30.24,NNE,23,0.0,6.0,83,0.00,,,0.11,meteohub,2013-11-26 02:17:00,
2013-11-25 20:22:00,37.4,32.7,30.24,NNW,346,6.0,7.0,83,0.00,,,0.11,meteohub,2013-11-26 02:22:00,
2013-11-25 20:27:00,37.4,32.7,30.24,NNE,14,2.0,7.0,83,0.00,,,0.11,meteohub,2013-11-26 02:27:00,
2013-11-25 20:32:00,37.4,32.4,30.23,NW,322,0.0,7.0,82,0.00,,,0.11,meteohub,2013-11-26 02:32:00,
2013-11-25 20:37:00,37.4,32.4,30.24,North,0,0.0,7.0,82,0.00,,,0.11,meteohub,2013-11-26 02:37:00,
2013-11-25 20:42:00,37.4,32.4,30.23,NNW,337,0.0,7.0,82,0.00,,,0.11,meteohub,2013-11-26 02:42:00,
2013-11-25 20:47:00,37.4,32.7,30.23,NE,42,0.0,7.0,83,0.00,,,0.11,meteohub,2013-11-26 02:47:00,
2013-11-25 20:52:00,37.4,32.7,30.23,North,11,3.0,8.0,83,0.00,,,0.11,meteohub,2013-11-26 02:52:00,
2013-11-25 20:57:00,37.2,32.5,30.24,NW,312,0.0,8.0,83,0.00,,,0.11,meteohub,2013-11-26 02:57:00,
2013-11-25 21:02:00,37.2,32.5,30.24,North,11,0.0,9.0,83,0.00,,,0.11,meteohub,2013-11-26 03:02:00,
2013-11-25 21:07:00,37.2,32.5,30.24,NNW,336,0.0,9.0,83,0.00,,,0.11,meteohub,2013-11-26 03:07:00,
2013-11-25 21:12:00,37.0,32.4,30.23,North,5,7.0,7.0,83,0.00,,,0.11,meteohub,2013-11-26 03:12:00,
2013-11-25 21:17:00,37.0,32.4,30.24,North,355,0.0,7.0,83,0.00,,,0.11,meteohub,2013-11-26 03:17:00,
2013-11-25 21:22:00,37.2,32.5,30.24,NE,49,0.0,7.0,83,0.00,,,0.11,meteohub,2013-11-26 03:22:00,
2013-11-25 21:27:00,37.2,32.5,30.24,North,5,3.0,7.0,83,0.00,,,0.11,meteohub,2013-11-26 03:27:00,
2013-11-25 21:32:00,37.2,32.5,30.24,North,0,0.0,9.0,83,0.00,,,0.11,meteohub,2013-11-26 03:32:00,
2013-11-25 21:37:00,37.2,32.5,30.24,North,0,7.0,9.0,83,0.00,,,0.11,meteohub,2013-11-26 03:37:00,
2013-11-25 21:42:00,37.2,32.5,30.24,NNE,19,0.0,9.0,83,0.00,,,0.11,meteohub,2013-11-26 03:42:00,
2013-11-25 21:47:00,37.2,32.5,30.24,North,350,0.0,9.0,83,0.00,,,0.11,meteohub,2013-11-26 03:47:00,
2013-11-25 21:52:00,37.2,32.5,30.24,NNW,333,0.0,10.0,83,0.00,,,0.11,meteohub,2013-11-26 03:52:00,
2013-11-25 21:57:00,37.0,32.4,30.24,NNE,31,0.0,10.0,83,0.00,,,0.11,meteohub,2013-11-26 03:57:00,
2013-11-25 22:02:00,37.0,32.4,30.24,North,5,0.0,10.0,83,0.00,,,0.11,meteohub,2013-11-26 04:02:00,
2013-11-25 22:07:00,37.0,32.7,30.24,North,0,0.0,10.0,84,0.00,,,0.11,meteohub,2013-11-26 04:07:00,
2013-11-25 22:12:00,37.2,32.9,30.24,North,0,0.0,5.0,84,0.00,,,0.11,meteohub,2013-11-26 04:12:00,
2013-11-25 22:17:00,37.2,32.9,30.24,North,0,0.0,5.0,84,0.00,,,0.11,meteohub,2013-11-26 04:17:00,
2013-11-25 22:22:00,37.2,32.9,30.24,North,355,0.0,5.0,84,0.00,,,0.11,meteohub,2013-11-26 04:22:00,
2013-11-25 22:27:00,37.2,32.9,30.24,NNW,341,0.0,5.0,84,0.00,,,0.11,meteohub,2013-11-26 04:27:00,
2013-11-25 22:32:00,37.0,32.7,30.24,NNW,343,0.0,0.0,84,0.00,,,0.11,meteohub,2013-11-26 04:32:00,
2013-11-25 22:37:00,37.0,32.7,30.24,NNW,338,5.0,0.0,84,0.00,,,0.11,meteohub,2013-11-26 04:37:00,
2013-11-25 22:42:00,37.0,32.9,30.24,North,5,0.0,8.0,85,0.00,,,0.11,meteohub,2013-11-26 04:42:00,
2013-11-25 22:47:00,37.0,32.9,30.24,North,0,0.0,8.0,85,0.00,,,0.11,meteohub,2013-11-26 04:47:00,
2013-11-25 22:52:00,37.0,32.9,30.24,NNW,336,2.0,8.0,85,0.00,,,0.11,meteohub,2013-11-26 04:52:00,
2013-11-25 22:57:00,36.9,32.7,30.24,NNW,331,0.0,8.0,85,0.00,,,0.11,meteohub,2013-11-26 04:57:00,
2013-11-25 23:01:00,36.9,32.7,30.24,NNW,333,0.0,8.0,85,0.00,,,0.11,meteohub,2013-11-26 05:01:00,
2013-11-25 23:02:00,36.9,32.7,30.25,NNW,334,0.0,8.0,85,0.00,,,0.11,meteohub,2013-11-26 05:02:00,
2013-11-25 23:08:00,36.9,33.1,30.25,NNW,329,0.0,8.0,86,0.00,,,0.11,meteohub,2013-11-26 05:08:00,
2013-11-25 23:12:00,36.9,33.1,30.25,NNW,339,0.0,8.0,86,0.00,,,0.11,meteohub,2013-11-26 05:12:00,
2013-11-25 23:18:00,36.9,33.1,30.25,NNW,343,0.0,8.0,86,0.00,,,0.11,meteohub,2013-11-26 05:18:00,
2013-11-25 23:23:00,36.9,33.1,30.26,NW,322,0.0,8.0,86,0.00,,,0.11,meteohub,2013-11-26 05:23:00,
2013-11-25 23:28:00,36.9,33.1,30.26,North,0,0.0,0.0,86,0.00,,,0.11,meteohub,2013-11-26 05:28:00,
2013-11-25 23:33:00,37.0,33.3,30.25,NNW,338,0.0,0.0,86,0.00,,,0.11,meteohub,2013-11-26 05:33:00,
2013-11-25 23:38:00,37.0,33.3,30.26,NNW,336,0.0,0.0,86,0.00,,,0.11,meteohub,2013-11-26 05:38:00,
2013-11-25 23:43:00,37.0,33.3,30.25,NNW,339,5.0,8.0,86,0.00,,,0.11,meteohub,2013-11-26 05:43:00,
2013-11-25 23:48:00,37.0,33.3,30.25,NNW,339,4.0,8.0,86,0.00,,,0.11,meteohub,2013-11-26 05:48:00,
2013-11-25 23:53:00,37.0,33.3,30.25,NNW,342,2.0,11.0,86,0.00,,,0.11,meteohub,2013-11-26 05:53:00,
2013-11-25 23:58:00,37.0,33.3,30.25,NNW,335,5.0,11.0,86,0.00,,,0.11,meteohub,2013-11-26 05:58:00,